Date String (YYYY-MM-DD hh:mm:ss) UTC,Instrument flags,Ambient pressure (hPa),Sample flow (lpm),Bypass flow (lpm),Sample temperature (°C),Ambient temperature (°C),ASC tube jacket temperature (°C),LED temperature (°C),Box temperature (°C),Sample RH (%),Span deviation,Mass concentration (μg/m³),Mass concentration (μg/m³),Mass concentration (μg/m³)
DateTimeUTC,F1_M11,P_M11,Q1_M11,Q2_M11,T1_M11,T2_M11,T3_M11,T4_M11,T5_M11,U1_M11,ZSPAN_M11,X2_M11,X0_M11,X1_M11
2023-02-12 13:00:00,,0823.2,4.92,0.00,22.1,21.6,00.0,30.8,24.0,11.5,0000.0,0004.03,0007.39,0003.74
2023-02-12 13:01:00,,0823.2,5.00,0.00,22.2,22.8,00.0,30.9,24.3,11.4,0000.0,0004.08,0007.47,0003.79
2023-02-12 13:02:00,,0823.3,4.97,0.00,22.3,23.0,00.0,30.9,24.4,11.4,0000.0,0004.13,0007.51,0003.85
2023-02-12 13:03:00,,0823.2,5.00,0.00,22.4,22.5,00.0,31.0,24.3,11.4,0000.0,0004.19,0007.09,0003.90
2023-02-12 13:04:00,,0823.2,5.01,0.00,22.4,22.1,00.0,31.0,24.3,11.3,0000.0,0004.21,0006.63,0003.94
2023-02-12 13:05:00,,0823.3,5.02,0.00,22.4,21.7,00.0,31.0,24.2,11.4,0000.0,0004.26,0006.47,0003.98
2023-02-12 13:06:00,,0823.1,4.99,0.00,22.4,21.5,00.0,31.1,24.2,11.4,0000.0,0004.32,0006.51,0004.04
2023-02-12 13:07:00,,0823.2,5.02,0.00,22.4,21.3,00.0,31.1,24.2,11.3,0000.0,0004.38,0006.72,0004.08
2023-02-12 13:08:00,,0823.2,5.01,0.00,22.4,21.1,00.0,31.1,24.2,11.3,0000.0,0004.41,0006.70,0004.11
2023-02-12 13:09:00,,0823.2,4.99,0.00,22.4,21.0,00.0,31.1,24.1,11.4,0000.0,0004.41,0006.55,0004.14
2023-02-12 13:10:00,,0823.3,4.99,0.00,22.3,20.9,00.0,31.1,24.1,11.5,0000.0,0004.42,0006.59,0004.15
2023-02-12 13:11:00,,0823.2,4.98,0.00,22.3,20.8,00.0,31.1,24.1,11.6,0000.0,0004.42,0006.50,0004.16
2023-02-12 13:12:00,,0823.3,5.00,0.00,22.3,20.7,00.0,31.1,24.1,11.5,0000.0,0004.45,0006.81,0004.20
2023-02-12 13:13:00,,0823.3,5.00,0.00,22.3,20.6,00.0,31.1,24.1,11.5,0000.0,0004.51,0007.85,0004.24
2023-02-12 13:14:00,,0823.3,5.02,0.00,22.3,20.6,00.0,31.1,24.0,11.5,0000.0,0004.57,0008.01,0004.29
2023-02-12 13:15:00,,0823.3,5.00,0.00,22.3,20.5,00.0,31.1,24.0,11.5,0000.0,0004.64,0008.14,0004.34
2023-02-12 13:16:00,,0823.3,5.00,0.00,22.2,20.5,00.0,31.1,24.0,11.6,0000.0,0004.67,0008.17,0004.39
2023-02-12 13:17:00,,0823.3,4.98,0.00,22.2,20.4,00.0,31.1,23.9,11.7,0000.0,0004.70,0008.21,0004.42
2023-02-12 13:18:00,,0823.2,4.99,0.00,22.2,20.3,00.0,31.1,23.9,11.7,0000.0,0004.72,0008.21,0004.45
2023-02-12 13:19:00,,0823.4,4.99,0.00,22.2,20.3,00.0,31.1,23.9,11.6,0000.0,0004.72,0008.15,0004.48
2023-02-12 13:20:00,,0823.3,4.97,0.00,22.2,20.3,00.0,31.1,23.9,11.6,0000.0,0004.76,0008.24,0004.52
2023-02-12 13:21:00,,0823.3,4.98,0.00,22.1,20.2,00.0,31.0,23.8,11.7,0000.0,0004.81,0008.64,0004.55
2023-02-12 13:22:00,,0823.4,5.01,0.00,22.1,20.1,00.0,31.0,23.7,11.7,0000.0,0004.82,0008.73,0004.57
2023-02-12 13:23:00,,0823.4,5.00,0.00,22.1,20.3,00.0,31.0,23.8,11.7,0000.0,0004.85,0008.72,0004.60
2023-02-12 13:24:00,,0823.4,4.98,0.00,22.1,21.4,00.0,31.0,24.0,11.6,0000.0,0004.86,0007.92,0004.62
2023-02-12 13:25:00,,0823.4,5.02,0.00,22.2,22.5,00.0,30.9,24.3,11.6,0000.0,0004.87,0007.78,0004.63
2023-02-12 13:26:00,,0823.3,5.01,0.00,22.4,22.8,00.0,31.0,24.4,11.5,0000.0,0004.88,0007.76,0004.65
2023-02-12 13:27:00,,0823.4,4.99,0.00,22.4,22.4,00.0,31.1,24.3,11.5,0000.0,0004.94,0007.93,0004.69
2023-02-12 13:28:00,,0823.3,5.07,0.00,22.4,21.9,00.0,31.1,24.3,11.5,0000.0,0004.99,0008.02,0004.73
2023-02-12 13:29:00,,0823.3,5.01,0.00,22.4,21.6,00.0,31.1,24.2,11.4,0000.0,0005.02,0008.14,0004.76
2023-02-12 13:30:00,,0823.4,5.01,0.00,22.4,21.4,00.0,31.1,24.2,11.5,0000.0,0005.06,0008.19,0004.80
2023-02-12 13:31:00,,0823.3,5.01,0.00,22.4,21.2,00.0,31.1,24.2,11.5,0000.0,0005.09,0008.18,0004.84
2023-02-12 13:32:00,,0823.3,4.98,0.00,22.4,21.0,00.0,31.1,24.2,11.5,0000.0,0005.15,0007.90,0004.89
2023-02-12 13:33:00,,0823.4,5.00,0.00,22.3,20.9,00.0,31.2,24.2,11.5,0000.0,0005.24,0007.97,0004.97
2023-02-12 13:34:00,,0823.4,5.01,0.00,22.3,20.8,00.0,31.2,24.1,11.5,0000.0,0005.31,0008.11,0005.02
2023-02-12 13:35:00,,0823.4,4.99,0.00,22.3,20.7,00.0,31.2,24.1,11.5,0000.0,0005.33,0008.22,0005.05
2023-02-12 13:36:00,,0823.4,5.00,0.00,22.3,20.6,00.0,31.1,24.1,11.5,0000.0,0005.36,0008.29,0005.07
2023-02-12 13:37:00,,0823.4,4.99,0.00,22.3,20.5,00.0,31.1,24.0,11.5,0000.0,0005.37,0008.55,0005.07
2023-02-12 13:38:00,,0823.4,5.03,0.00,22.2,20.4,00.0,31.1,23.9,11.6,0000.0,0005.42,0008.58,0005.11
2023-02-12 13:39:00,,0823.4,4.99,0.00,22.2,20.4,00.0,31.1,23.9,11.7,0000.0,0005.53,0008.76,0005.17
2023-02-12 13:40:00,,0823.4,5.00,0.00,22.2,20.4,00.0,31.1,23.9,11.7,0000.0,0005.61,0008.83,0005.23
2023-02-12 13:41:00,,0823.5,4.99,0.00,22.2,20.4,00.0,31.1,23.9,11.7,0000.0,0005.67,0008.99,0005.27
2023-02-12 13:42:00,,0823.6,5.01,0.00,22.2,20.4,00.0,31.1,23.9,11.7,0000.0,0005.70,0009.57,0005.27
2023-02-12 13:43:00,,0823.6,5.02,0.00,22.1,20.3,00.0,31.1,23.8,11.7,0000.0,0005.69,0009.64,0005.26
2023-02-12 13:44:00,,0823.6,5.02,0.00,22.1,20.2,00.0,31.1,23.8,11.7,0000.0,0005.71,0009.78,0005.26
2023-02-12 13:45:00,,0823.5,5.00,0.00,22.1,20.1,00.0,31.0,23.8,11.8,0000.0,0005.75,0009.84,0005.29
2023-02-12 13:46:00,,0823.6,4.99,0.00,22.0,20.2,00.0,31.0,23.8,11.9,0000.0,0005.84,0010.17,0005.36
2023-02-12 13:47:00,,0823.6,4.98,0.00,22.0,20.4,00.0,31.0,23.8,11.9,0000.0,0005.92,0010.24,0005.45
2023-02-12 13:48:00,,0823.5,4.99,0.00,22.1,21.4,00.0,30.9,24.1,11.8,0000.0,0006.00,0010.34,0005.53
2023-02-12 13:49:00,,0823.5,5.01,0.00,22.2,22.5,00.0,30.9,24.3,11.7,0000.0,0006.04,0010.56,0005.57
2023-02-12 13:50:00,,0823.4,5.00,0.00,22.4,22.8,00.0,31.0,24.4,11.7,0000.0,0006.03,0010.55,0005.57
2023-02-12 13:51:00,,0823.5,4.94,0.00,22.4,22.4,00.0,31.0,24.4,11.7,0000.0,0006.06,0010.77,0005.60
2023-02-12 13:52:00,,0823.6,5.02,0.00,22.4,22.0,00.0,31.1,24.3,11.7,0000.0,0006.11,0011.19,0005.64
2023-02-12 13:53:00,,0823.6,5.01,0.00,22.4,21.7,00.0,31.1,24.3,11.6,0000.0,0006.14,0011.07,0005.69
2023-02-12 13:54:00,,0823.5,5.00,0.00,22.4,21.4,00.0,31.1,24.2,11.6,0000.0,0006.19,0010.99,0005.75
2023-02-12 13:55:00,,0823.4,4.99,0.00,22.4,21.1,00.0,31.1,24.1,11.6,0000.0,0006.25,0011.00,0005.81
2023-02-12 13:56:00,,0823.4,5.02,0.00,22.4,20.9,00.0,31.1,24.1,11.7,0000.0,0006.27,0011.32,0005.85
2023-02-12 13:57:00,,0823.5,5.00,0.00,22.3,20.8,00.0,31.1,24.1,11.7,0000.0,0006.28,0011.65,0005.86
2023-02-12 13:58:00,,0823.4,5.00,0.00,22.3,20.7,00.0,31.1,24.1,11.7,0000.0,0006.27,0011.58,0005.86
2023-02-12 13:59:00,,0823.4,5.00,0.00,22.3,20.6,00.0,31.1,24.0,11.7,0000.0,0006.26,0011.38,0005.85
